Weather reports worldwide

Advertisment
Solenzara, France (7765): temperature & dewpoint: 20.09.2020 13:00:00 - 26.09.2020 13:00:00 (CEST)Solenzara, France (7765): temperature 5cm: 20.09.2020 13:00:00 - 26.09.2020 13:00:00 (CEST)Solenzara, France (7765): temperature -20cm: 20.09.2020 13:00:00 - 26.09.2020 13:00:00 (CEST)Solenzara, France (7765): wind speed & gusts: 20.09.2020 13:00:00 - 26.09.2020 13:00:00 (CEST)Solenzara, France (7765): wind direction: 20.09.2020 13:00:00 - 26.09.2020 13:00:00 (CEST)Solenzara, France (7765): reduced air pressure: 20.09.2020 13:00:00 - 26.09.2020 13:00:00 (CEST)Solenzara, France (7765): visibility: 20.09.2020 13:00:00 - 26.09.2020 13:00:00 (CEST)Solenzara, France (7765): sunshine duration: 20.09.2020 13:00:00 - 26.09.2020 13:00:00 (CEST)Solenzara, France (7765): precipitation: 20.09.2020 13:00:00 - 26.09.2020 13:00:00 (CEST)
Date & Time tt [°C] td [°C] tt 5cm [°C] tt -20cm [°C] ff [km/h] ff [kn] fx [km/h] fx [kn] dd ppp [hPa] vv [km] sd [min] rr [mm]
26.09.2020 13:00:00 20,0 3,2 23,1 21,8 31 17 61 33 W 1000,2 28 0 0,0
26.09.2020 12:00:00 19,9 4,8 22,2 21,8 30 16 74 40 W 1001,1 36 0 0,0
26.09.2020 11:00:00 20,3 5,1 20,8 21,9 24 13 49 26 W 1000,7 45 0 0,0
26.09.2020 10:00:00 19,3 4,2 18,6 22,0 23 12 56 31 W 1000,4 53 0 0,0
26.09.2020 09:00:00 18,3 4,1 16,1 22,2 28 15 55 30 W 999,3 60 0 0,0
26.09.2020 08:00:00 17,0 4,6 14,3 22,3 29 16 63 34 W 998,3 19 0 0,0
26.09.2020 07:00:00 16,9 3,2 14,1 22,5 27 15 56 30 WNW 998,2 60 0 0,0
26.09.2020 06:00:00 17,1 3,4 12,3 22,6 18 10 90 49 N 997,8 60 0 0,0
26.09.2020 05:00:00 17,3 3,6 10,9 22,7 44 24 82 44 W 994,2 60 0 0,0
26.09.2020 04:00:00 15,8 6,0 10,5 22,9 11 6 63 34 NW 996,9 60 0 0,0
26.09.2020 03:00:00 15,7 5,9 11,1 23,0 27 15 57 31 W 997,7 45 0 0,0
26.09.2020 02:00:00 16,1 6,8 10,8 23,2 9 5 41 22 NW 999,1 52 0 0,0
26.09.2020 01:00:00 15,3 8,5 10,8 23,3 10 5 39 21 SE 999,4 60 0 0,4
26.09.2020 00:00:00 15,1 7,6 11,5 23,5 16 9 61 33 W 999,6 36 0 0,5
25.09.2020 23:00:00 15,7 7,5 11,6 23,6 27 15 69 37 W 999,3 39 0 1,0
25.09.2020 22:00:00 15,8 7,8 11,5 23,7 36 19 73 40 W 998,6 19 0 0,8
25.09.2020 21:00:00 15,5 8,2 11,7 23,9 8 5 56 30 W 999,6 35 0 0,4
25.09.2020 20:00:00 16,4 6,8 11,6 23,9 14 7 42 23 ESE 999,1 57 0 0,2
25.09.2020 19:00:00 14,7 9,9 12,4 24,0 26 14 76 41 WSW 998,2 14 0 1,2
25.09.2020 18:00:00 16,0 9,0 13,0 24,0 23 13 62 33 W 999,8 17 0 0,6
25.09.2020 17:00:00 16,8 9,5 14,2 23,9 18 10 66 36 W 1000,5 33 0 1,4
25.09.2020 16:00:00 18,2 8,5 17,9 23,9 22 12 64 35 WSW 1001,3 18 0 0,2
25.09.2020 15:00:00 19,1 9,3 21,7 23,9 31 17 64 34 WSW 1000,7 14 0 0,0
25.09.2020 14:00:00 23,6 6,8 26,2 23,8 13 7 74 40 SW 1001,0 52 0 0,0
25.09.2020 13:00:00 24,2 9,0 24,6 23,8 13 7 46 25 SSW 1000,3 56 0 0,0
25.09.2020 12:00:00 25,4 10,0 25,4 23,8 14 7 60 33 NW 1000,4 60 0 0,0
25.09.2020 11:00:00 25,9 10,9 27,4 23,9 15 8 44 24 SSW 1001,2 60 0 0,0
25.09.2020 10:00:00 26,4 9,7 26,8 23,9 11 6 34 18 WSW 1000,7 51 0 0,0
25.09.2020 09:00:00 25,7 10,3 21,7 24,0 10 6 36 20 S 1001,1 60 0 0,0
25.09.2020 08:00:00 24,1 10,0 20,8 24,0 7 4 33 18 NE 1001,5 60 0 0,0
25.09.2020 07:00:00 23,9 11,6 20,1 24,1 13 7 30 16 ESE 1001,1 60 0 0,0
25.09.2020 06:00:00 25,0 12,6 17,0 24,1 10 6 50 27 NW 1001,8 60 0 0,0
25.09.2020 05:00:00 22,7 12,9 16,8 24,2 16 9 39 21 ENE 1002,9 60 0 0,4
25.09.2020 04:00:00 22,5 15,6 18,9 24,2 10 5 32 17 WNW 1004,1 14 0 0,2
25.09.2020 03:00:00 24,0 15,8 19,6 24,2 11 6 28 15 N 1004,2 60 0 0,0
25.09.2020 02:00:00 22,4 15,3 19,5 24,2 9 5 29 16 N 1004,6 52 0 0,0
25.09.2020 01:00:00 23,0 16,1 19,3 24,2 13 7 36 20 E 1005,3 59 0 0,4
25.09.2020 00:00:00 24,9 17,1 22,0 24,2 27 15 53 29 S 1005,2 22 0 0,0
24.09.2020 23:00:00 24,7 19,3 23,3 24,2 29 16 50 27 S 1006,4 40 0 0,0
24.09.2020 22:00:00 26,0 16,3 22,5 24,2 29 16 45 25 SSW 1007,6 57 0 0,0
24.09.2020 21:00:00 25,1 15,7 21,7 24,2 16 9 34 19 WSW 1008,7 60 0 0,0
24.09.2020 20:00:00 24,9 15,5 21,7 24,0 9 5 21 11 W 1009,4 55 0 0,0
24.09.2020 19:00:00 25,5 16,4 23,1 24,0 4 2 16 9 W 1009,4 60 0 0,0
24.09.2020 18:00:00 26,0 16,8 26,3 23,9 6 3 20 11 W 1009,6 60 0 0,0
24.09.2020 17:00:00 27,0 16,3 27,4 23,8 4 2 13 7 SSE 1010,1 60 0 0,0
24.09.2020 16:00:00 27,3 17,8 23,1 23,8 6 3 26 14 WNW 1010,5 59 0 0,0
24.09.2020 15:00:00 22,9 18,7 23,3 23,6 16 8 35 19 W 1011,1 17 0 0,2
24.09.2020 14:00:00 27,9 18,0 26,5 23,6 14 8 19 11 SSE 1011,2 57 0 0,0
24.09.2020 13:00:00 24,7 18,4 26,5 23,6 8 4 12 7 SSE 1011,8 59 0 0,0
24.09.2020 12:00:00 24,6 17,8 26,3 23,6 4 2 11 6 ESE 1012,2 60 0 0,0
24.09.2020 11:00:00 26,4 17,5 25,5 23,6 10 5 16 9 E 1012,3 60 0 0,0
24.09.2020 10:00:00 24,2 15,4 23,9 23,6 3 1 9 5 SE 1012,3 60 0 0,0
24.09.2020 09:00:00 22,7 15,3 17,4 23,7 4 2 10 5 NW 1012,2 55 0 0,0
24.09.2020 08:00:00 18,2 15,1 15,8 23,8 0 0 12 6 N 1011,7 60 0 0,0
24.09.2020 07:00:00 18,2 14,7 15,8 23,9 4 2 14 7 NNW 1011,6 60 0 0,0
24.09.2020 06:00:00 18,3 14,4 15,8 23,9 5 3 15 8 NW 1011,3 60 0 0,0
24.09.2020 05:00:00 19,2 13,8 16,2 24,0 8 4 16 8 W 1011,2 60 0 0,0
24.09.2020 04:00:00 19,0 14,7 16,3 24,0 9 5 13 7 W 1011,4 60 0 0,0
24.09.2020 03:00:00 19,8 14,6 16,3 24,1 6 3 16 9 WSW 1011,7 60 0 0,0
24.09.2020 02:00:00 19,3 14,3 16,1 24,2 5 3 13 7 WNW 1012,0 60 0 0,0
24.09.2020 01:00:00 19,3 15,0 16,7 24,2 7 4 16 8 SW 1012,0 60 0 0,0
24.09.2020 00:00:00 20,2 15,8 17,2 24,2 5 3 15 8 WNW 1012,3 60 0 0,0
23.09.2020 23:00:00 20,6 16,0 17,5 24,2 5 3 14 8 NW 1011,9 60 0 0,0
23.09.2020 22:00:00 20,7 15,0 17,4 24,3 8 5 14 8 W 1011,8 60 0 0,0
23.09.2020 21:00:00 21,0 15,8 17,9 24,2 6 3 16 9 SSW 1011,7 60 0 0,0
23.09.2020 20:00:00 22,7 16,5 20,6 24,2 8 4 30 16 NW 1011,3 60 0 0,0
23.09.2020 19:00:00 23,4 17,4 22,9 24,1 24 13 34 19 N 1010,9 60 0 0,0
23.09.2020 18:00:00 27,0 13,7 25,1 24,1 15 8 36 19 N 1010,6 46 0 0,0
23.09.2020 17:00:00 26,5 16,1 26,9 24,0 12 7 33 18 N 1010,7 60 0 0,0
23.09.2020 16:00:00 28,4 16,3 25,9 24,0 9 5 19 11 SSE 1010,0 60 0 0,0
23.09.2020 15:00:00 25,2 17,9 25,5 23,9 13 7 21 11 ESE 1010,2 60 0 0,0
23.09.2020 14:00:00 26,1 18,5 26,4 23,9 16 9 27 14 E 1010,5 60 0 0,0
23.09.2020 13:00:00 24,6 17,8 23,1 23,9 12 6 19 11 NE 1011,2 57 0 0,0
23.09.2020 12:00:00 23,3 18,0 20,9 23,9 7 4 15 8 ENE 1011,6 60 0 0,0
23.09.2020 11:00:00 23,4 17,6 20,9 24,0 4 2 12 6 SE 1011,6 60 0 0,0
23.09.2020 10:00:00 21,6 17,0 18,6 24,1 3 2 9 5 W 1012,0 57 0 0,0
23.09.2020 09:00:00 19,2 15,7 17,2 24,2 7 4 13 7 W 1012,0 60 0 0,0
23.09.2020 08:00:00 17,9 15,0 16,2 24,3 8 4 18 10 W 1012,3 60 0 0,0
23.09.2020 07:00:00 17,7 14,6 16,1 24,4 11 6 16 9 WNW 1011,9 60 0 0,0
23.09.2020 06:00:00 17,8 15,2 15,7 24,5 8 4 22 12 NW 1011,5 60 0 0,0
23.09.2020 05:00:00 17,5 15,1 15,5 24,6 9 5 16 8 W 1011,6 60 0 0,0
23.09.2020 04:00:00 17,4 15,4 15,2 24,7 7 4 16 9 W 1012,2 60 0 0,0
23.09.2020 03:00:00 17,2 14,8 15,1 24,7 5 3 12 6 NW 1012,0 60 0 0,0
23.09.2020 02:00:00 17,6 14,7 15,7 24,8 3 2 15 8 WSW 1012,7 60 0 0,0
23.09.2020 01:00:00 17,9 15,3 16,7 24,9 10 5 18 10 W 1013,0 60 0 0,0
23.09.2020 00:00:00 18,1 15,5 17,1 24,9 11 6 18 10 W 1013,3 60 0 0,0
22.09.2020 23:00:00 18,9 15,9 17,1 25,0 8 4 19 10 W 1013,7 60 0 0,0
22.09.2020 22:00:00 18,8 16,8 17,1 25,1 9 5 19 11 NW 1013,9 60 0 0,0
22.09.2020 21:00:00 19,0 16,4 17,7 25,1 6 4 19 10 WNW 1013,7 59 0 0,0
22.09.2020 20:00:00 19,9 17,7 18,5 25,2 11 6 16 9 WSW 1013,1 59 0 0,0
22.09.2020 19:00:00 20,9 18,1 19,4 25,2 5 3 19 10 W 1012,9 13 0 0,6
22.09.2020 18:00:00 21,9 18,5 20,3 25,2 12 6 21 12 NNW 1013,4 60 0 0,0
22.09.2020 17:00:00 22,8 18,6 20,0 25,2 11 6 22 12 N 1013,9 52 0 0,0
22.09.2020 16:00:00 23,5 17,0 21,2 25,2 9 5 14 7 ENE 1013,9 60 0 0,2
22.09.2020 15:00:00 22,4 19,8 21,2 25,1 2 1 10 6 SSE 1014,3 14 0 0,8
22.09.2020 14:00:00 21,1 16,3 20,6 25,1 9 5 24 13 SSW 1014,6 17 0 1,8
22.09.2020 13:00:00 23,0 19,4 21,8 25,1 11 6 21 11 SW 1014,8 6 0 1,4
22.09.2020 12:00:00 25,3 19,7 25,9 25,1 9 5 18 10 E 1014,9 20 0 0,0
22.09.2020 11:00:00 25,8 18,5 28,7 25,1 11 6 15 8 E 1015,1 60 0 0,0
22.09.2020 10:00:00 26,1 18,0 25,0 25,2 3 2 8 4 E 1014,7 60 0 0,0
22.09.2020 09:00:00 22,3 16,1 19,5 25,2 5 3 19 11 WNW 1014,8 60 0 0,0
22.09.2020 08:00:00 19,1 15,2 17,4 25,3 13 7 24 13 W 1014,6 49 0 0,0
22.09.2020 07:00:00 18,7 15,4 17,3 25,4 6 3 18 10 NW 1014,5 60 0 0,0
22.09.2020 06:00:00 19,0 15,1 18,1 25,5 10 5 20 11 W 1014,2 60 0 0,0
22.09.2020 05:00:00 18,9 15,8 17,9 25,5 9 5 18 10 W 1014,6 60 0 0,0
22.09.2020 04:00:00 19,5 15,6 18,8 25,6 10 6 19 10 W 1014,7 60 0 0,0
22.09.2020 03:00:00 19,5 15,8 18,7 25,7 11 6 19 11 W 1015,3 60 0 0,0
22.09.2020 02:00:00 19,7 15,8 18,7 25,8 10 6 21 11 W 1015,4 60 0 0,0
22.09.2020 01:00:00 19,5 16,2 18,7 25,8 10 5 18 10 W 1015,6 60 0 0,0
22.09.2020 00:00:00 19,8 15,9 18,9 25,9 11 6 21 11 W 1016,0 60 0 0,0
21.09.2020 23:00:00 20,0 16,4 18,8 25,9 11 6 19 10 W 1015,9 60 0 0,0
21.09.2020 22:00:00 20,4 16,6 19,0 25,9 10 5 18 10 W 1015,7 60 0 0,0
21.09.2020 21:00:00 20,9 17,3 19,0 26,0 8 5 16 9 W 1015,6 60 0 0,0
21.09.2020 20:00:00 21,2 17,8 19,0 26,0 8 4 15 8 W 1015,2 60 0 0,0
21.09.2020 19:00:00 21,0 17,6 19,5 25,9 11 6 35 19 NNW 1015,4 60 0 0,0
21.09.2020 18:00:00 20,7 18,3 19,6 25,8 22 12 47 26 N 1015,0 22 0 0,4
21.09.2020 17:00:00 25,0 19,6 25,5 25,7 12 6 18 10 NE 1014,6 60 0 0,0
21.09.2020 16:00:00 26,3 20,2 24,5 25,6 13 7 21 11 ENE 1014,3 60 0 0,0
21.09.2020 15:00:00 24,6 20,9 24,8 25,5 7 4 22 12 S 1014,7 28 0 0,0
21.09.2020 14:00:00 27,7 19,8 29,8 25,4 13 7 23 12 ESE 1015,2 51 0 0,0
21.09.2020 13:00:00 26,2 19,1 27,3 25,4 12 6 21 11 ESE 1015,6 20 0 0,0
21.09.2020 12:00:00 26,2 19,6 29,5 25,4 9 5 17 9 ESE 1015,7 20 0 0,0
21.09.2020 11:00:00 25,8 19,0 27,6 25,5 8 5 15 8 E 1015,9 60 0 0,0
21.09.2020 10:00:00 24,3 16,6 21,8 25,6 0 0 10 6 N 1015,8 60 0 0,0
21.09.2020 09:00:00 21,0 15,1 21,0 25,7 8 4 15 8 W 1015,4 60 0 0,0
21.09.2020 08:00:00 20,1 14,7 18,6 25,7 9 5 18 10 W 1015,0 60 0 0,0
21.09.2020 07:00:00 19,7 14,9 18,2 25,8 9 5 20 11 W 1014,8 60 0 0,0
21.09.2020 06:00:00 19,7 14,9 17,2 25,9 9 5 14 8 W 1015,1 60 0 0,0
21.09.2020 05:00:00 19,9 15,3 17,2 26,0 8 4 13 7 WNW 1015,1 60 0 0,0
21.09.2020 04:00:00 19,8 15,4 17,3 26,0 6 3 14 7 W 1015,0 60 0 0,0
21.09.2020 03:00:00 20,0 16,2 17,5 26,1 5 3 10 6 NNW 1015,5 56 0 0,0
21.09.2020 02:00:00 20,6 16,0 18,2 26,2 6 3 14 8 WNW 1015,4 60 0 0,0
21.09.2020 01:00:00 21,5 16,0 19,4 26,3 7 4 14 8 W 1015,5 60 0 0,0
21.09.2020 00:00:00 21,2 16,2 19,0 26,3 8 4 14 8 W 1015,3 58 0 0,0
20.09.2020 23:00:00 21,4 16,6 18,7 26,3 8 5 13 7 W 1015,3 60 0 0,0
20.09.2020 22:00:00 22,0 16,7 19,1 26,3 5 3 9 5 WSW 1015,3 60 0 0,0
20.09.2020 21:00:00 22,7 16,7 20,6 26,3 6 3 11 6 W 1014,7 60 0 0,0
20.09.2020 20:00:00 23,6 17,3 22,2 26,3 8 4 12 7 NNE 1014,8 60 0 0,0
20.09.2020 19:00:00 24,7 16,7 24,1 26,2 10 5 34 18 N 1014,7 60 0 0,0
20.09.2020 18:00:00 25,6 17,8 25,3 26,1 26 14 37 20 NE 1013,7 33 0 0,0
20.09.2020 17:00:00 26,6 19,2 27,1 26,0 24 13 41 22 NNE 1013,6 32 0 0,0
20.09.2020 16:00:00 29,5 13,3 31,6 25,9 17 9 40 22 W 1012,8 60 0 0,0
20.09.2020 15:00:00 30,7 17,0 29,5 25,8 10 5 37 20 SSW 1012,6 41 0 0,0
20.09.2020 14:00:00 26,9 20,0 29,9 25,7 16 9 34 18 SSE 1013,6 38 0 0,0
20.09.2020 13:00:00 27,8 21,1 34,3 25,7 15 8 23 13 SSE 1014,2 20 0 0,0

tt = temperature
td = dewpoint
tt 5cm = temperature 5cm
tt -20cm = temperature -20cm
ff = wind speed
fx = gusts
dd = wind direction
ppp = reduced air pressure
vv = visibility
sd = sunshine duration
rr = precipitation

Next stations